Time,TemperatureF,DewpointF,PressureIn,WindDirection,WindDirectionDegrees,WindSpeedMPH,WindSpeedGustMPH,Humidity,HourlyPrecipIn,Conditions,Clouds,dailyrainin,SoftwareType,DateUTC
2013-02-07 00:05:00,31.6,27.0,30.02,SE,139,0.0,4.0,83,0.00,,,0.09,Wunderground v.1.13,2013-02-07 06:05:00,
2013-02-07 00:15:00,31.6,27.0,30.02,SE,139,0.0,4.0,83,0.00,,,0.09,Wunderground v.1.13,2013-02-07 06:15:00,
2013-02-07 00:25:00,31.8,27.2,30.02,SE,140,1.0,4.0,83,0.00,,,0.09,Wunderground v.1.13,2013-02-07 06:25:00,
2013-02-07 00:35:00,31.9,27.6,30.02,SE,140,0.0,4.0,84,0.00,,,0.09,Wunderground v.1.13,2013-02-07 06:35:00,
2013-02-07 00:45:00,32.1,27.8,30.02,SE,140,0.0,4.0,84,0.00,,,0.09,Wunderground v.1.13,2013-02-07 06:45:00,
2013-02-07 00:50:00,32.1,28.1,30.02,SE,140,0.0,4.0,85,0.00,,,0.09,Wunderground v.1.13,2013-02-07 06:50:00,
2013-02-07 00:55:00,32.1,28.1,30.02,SE,140,0.0,4.0,85,0.00,,,0.09,Wunderground v.1.13,2013-02-07 06:55:00,
2013-02-07 01:05:00,32.2,28.2,30.02,SE,140,0.0,0.0,85,0.00,,,0.09,Wunderground v.1.13,2013-02-07 07:05:00,
2013-02-07 01:15:00,32.4,28.4,30.02,SE,140,0.0,0.0,85,0.00,,,0.09,Wunderground v.1.13,2013-02-07 07:15:00,
2013-02-07 01:20:00,32.4,28.7,30.02,SE,140,0.0,0.0,86,0.00,,,0.09,Wunderground v.1.13,2013-02-07 07:20:00,
2013-02-07 01:30:00,32.4,28.7,30.02,SE,140,0.0,0.0,86,0.00,,,0.09,Wunderground v.1.13,2013-02-07 07:30:00,
2013-02-07 01:40:00,32.4,28.7,30.02,SE,140,0.0,0.0,86,0.00,,,0.09,Wunderground v.1.13,2013-02-07 07:40:00,
2013-02-07 01:50:00,32.4,28.7,30.02,SE,140,0.0,0.0,86,0.00,,,0.09,Wunderground v.1.13,2013-02-07 07:50:00,
2013-02-07 02:00:00,32.2,28.5,30.02,SE,140,0.0,0.0,86,0.00,,,0.09,Wunderground v.1.13,2013-02-07 08:00:00,
2013-02-07 02:05:00,32.2,28.5,30.02,SE,140,0.0,1.0,86,0.00,,,0.09,Wunderground v.1.13,2013-02-07 08:05:00,
2013-02-07 02:15:00,32.1,28.4,30.02,SE,140,0.0,1.0,86,0.00,,,0.09,Wunderground v.1.13,2013-02-07 08:15:00,
2013-02-07 02:25:00,32.1,28.4,30.02,SE,140,0.0,1.0,86,0.00,,,0.09,Wunderground v.1.13,2013-02-07 08:25:00,
2013-02-07 02:30:00,32.1,28.7,30.02,SE,140,0.0,1.0,87,0.00,,,0.09,Wunderground v.1.13,2013-02-07 08:30:00,
2013-02-07 02:40:00,32.2,28.5,30.02,SE,140,0.0,1.0,86,0.00,,,0.09,Wunderground v.1.13,2013-02-07 08:40:00,
2013-02-07 02:45:00,32.1,28.4,30.02,SE,140,0.0,1.0,86,0.00,,,0.09,Wunderground v.1.13,2013-02-07 08:45:00,
2013-02-07 02:55:00,32.1,28.4,30.02,SE,140,0.0,1.0,86,0.00,,,0.09,Wunderground v.1.13,2013-02-07 08:55:00,
2013-02-07 03:05:00,31.9,28.5,30.01,SE,140,0.0,0.0,87,0.00,,,0.09,Wunderground v.1.13,2013-02-07 09:05:00,
2013-02-07 03:15:00,31.9,28.5,30.01,SE,140,0.0,0.0,87,0.00,,,0.09,Wunderground v.1.13,2013-02-07 09:15:00,
2013-02-07 03:20:00,32.1,28.7,30.00,SE,140,0.0,0.0,87,0.00,,,0.09,Wunderground v.1.13,2013-02-07 09:20:00,
2013-02-07 03:30:00,32.2,28.8,30.00,SE,140,0.0,0.0,87,0.00,,,0.09,Wunderground v.1.13,2013-02-07 09:30:00,
2013-02-07 03:40:00,32.4,29.0,29.99,SE,140,0.0,0.0,87,0.00,,,0.09,Wunderground v.1.13,2013-02-07 09:40:00,
2013-02-07 03:50:00,32.4,29.0,29.99,ESE,121,0.0,0.0,87,0.00,,,0.09,Wunderground v.1.13,2013-02-07 09:50:00,
2013-02-07 03:55:00,32.4,29.0,29.99,ESE,121,0.0,0.0,87,0.00,,,0.09,Wunderground v.1.13,2013-02-07 09:55:00,
2013-02-07 04:05:00,32.4,29.0,29.98,ESE,110,1.0,1.0,87,0.00,,,0.09,Wunderground v.1.13,2013-02-07 10:05:00,
2013-02-07 04:15:00,32.4,29.0,29.98,SE,140,1.0,1.0,87,0.00,,,0.09,Wunderground v.1.13,2013-02-07 10:15:00,
2013-02-07 04:25:00,32.4,29.0,29.99,SE,137,1.0,7.0,87,0.00,,,0.09,Wunderground v.1.13,2013-02-07 10:25:00,
2013-02-07 04:30:00,32.4,29.0,29.99,SE,137,1.0,1.0,87,0.00,,,0.09,Wunderground v.1.13,2013-02-07 10:30:00,
2013-02-07 04:40:00,32.2,28.8,29.98,SE,136,0.0,7.0,87,0.00,,,0.09,Wunderground v.1.13,2013-02-07 10:40:00,
2013-02-07 04:45:00,32.2,29.0,29.98,SE,137,0.0,7.0,88,0.00,,,0.09,Wunderground v.1.13,2013-02-07 10:45:00,
2013-02-07 04:50:00,32.2,29.0,29.98,SE,135,0.0,7.0,88,0.00,,,0.09,Wunderground v.1.13,2013-02-07 10:50:00,
2013-02-07 04:55:00,32.2,29.0,29.98,SE,126,0.0,7.0,88,0.00,,,0.09,Wunderground v.1.13,2013-02-07 10:55:00,
2013-02-07 05:05:00,32.2,29.0,29.97,SE,144,1.0,6.0,88,0.00,,,0.00,Wunderground v.1.13,2013-02-07 11:05:00,
2013-02-07 05:15:00,32.1,28.9,29.97,ESE,122,1.0,6.0,88,0.00,,,0.00,Wunderground v.1.13,2013-02-07 11:15:00,
2013-02-07 05:25:00,31.9,29.0,29.97,SSE,157,1.0,9.0,89,0.00,,,0.00,Wunderground v.1.13,2013-02-07 11:25:00,
2013-02-07 05:30:00,31.9,29.0,29.97,SE,132,1.0,1.0,89,0.00,,,0.00,Wunderground v.1.13,2013-02-07 11:30:00,
2013-02-07 05:40:00,31.9,29.0,29.97,SSE,150,1.0,1.0,89,0.00,,,0.00,Wunderground v.1.13,2013-02-07 11:40:00,
2013-02-07 05:50:00,31.8,28.9,29.97,SSE,150,1.0,1.0,89,0.00,,,0.00,Wunderground v.1.13,2013-02-07 11:50:00,
2013-02-07 05:55:00,31.8,28.9,29.97,SE,140,1.0,6.0,89,0.00,,,0.00,Wunderground v.1.13,2013-02-07 11:55:00,
2013-02-07 06:05:00,31.8,28.9,29.97,SE,132,0.0,7.0,89,0.00,,,0.00,Wunderground v.1.13,2013-02-07 12:05:00,
2013-02-07 06:15:00,31.6,29.0,29.97,SE,146,0.0,7.0,90,0.00,,,0.00,Wunderground v.1.13,2013-02-07 12:15:00,
2013-02-07 06:20:00,31.6,29.0,29.97,SSE,157,1.0,7.0,90,0.00,,,0.00,Wunderground v.1.13,2013-02-07 12:20:00,
2013-02-07 06:30:00,31.6,29.0,29.97,SSE,152,1.0,7.0,90,0.00,,,0.00,Wunderground v.1.13,2013-02-07 12:30:00,
2013-02-07 06:35:00,31.6,29.0,29.97,SSE,155,0.0,7.0,90,0.00,,,0.00,Wunderground v.1.13,2013-02-07 12:35:00,
2013-02-07 06:45:00,31.6,29.0,29.97,SE,146,1.0,7.0,90,0.00,,,0.00,Wunderground v.1.13,2013-02-07 12:45:00,
2013-02-07 06:55:00,31.6,29.0,29.97,SE,146,0.0,7.0,90,0.00,,,0.00,Wunderground v.1.13,2013-02-07 12:55:00,
2013-02-07 07:05:00,31.5,28.9,29.96,SE,142,1.0,1.0,90,0.00,,,0.00,Wunderground v.1.13,2013-02-07 13:05:00,
2013-02-07 07:15:00,31.5,28.9,29.96,ESE,117,1.0,1.0,90,0.00,,,0.00,Wunderground v.1.13,2013-02-07 13:15:00,
2013-02-07 07:25:00,31.5,29.2,29.96,SE,144,1.0,8.0,91,0.00,,,0.00,Wunderground v.1.13,2013-02-07 13:25:00,
2013-02-07 07:30:00,31.6,29.0,29.96,SE,144,1.0,1.0,90,0.00,,,0.00,Wunderground v.1.13,2013-02-07 13:30:00,
2013-02-07 07:40:00,31.6,29.3,29.96,SE,135,0.0,8.0,91,0.00,,,0.00,Wunderground v.1.13,2013-02-07 13:40:00,
2013-02-07 07:50:00,31.8,29.5,29.96,SE,137,0.0,8.0,91,0.00,,,0.00,Wunderground v.1.13,2013-02-07 13:50:00,
2013-02-07 08:00:00,31.8,29.5,29.96,SE,139,0.0,8.0,91,0.00,,,0.00,Wunderground v.1.13,2013-02-07 14:00:00,
2013-02-07 08:05:00,31.9,29.6,29.96,SE,139,0.0,7.0,91,0.00,,,0.00,Wunderground v.1.13,2013-02-07 14:05:00,
2013-02-07 08:15:00,31.9,29.6,29.96,SE,131,0.0,7.0,91,0.00,,,0.00,Wunderground v.1.13,2013-02-07 14:15:00,
2013-02-07 08:25:00,32.1,29.8,29.96,SE,134,0.0,7.0,91,0.00,,,0.00,Wunderground v.1.13,2013-02-07 14:25:00,
2013-02-07 08:30:00,32.1,30.0,29.96,SE,135,0.0,7.0,92,0.00,,,0.00,Wunderground v.1.13,2013-02-07 14:30:00,
2013-02-07 08:40:00,32.1,30.0,29.96,SE,137,0.0,7.0,92,0.00,,,0.00,Wunderground v.1.13,2013-02-07 14:40:00,
2013-02-07 08:50:00,32.2,30.1,29.96,ESE,123,0.0,7.0,92,0.00,,,0.00,Wunderground v.1.13,2013-02-07 14:50:00,
2013-02-07 09:00:00,32.4,30.3,29.96,ESE,123,0.0,7.0,92,0.00,,,0.00,Wunderground v.1.13,2013-02-07 15:00:00,
2013-02-07 09:05:00,32.5,30.4,29.96,ESE,123,0.0,5.0,92,0.00,,,0.00,Wunderground v.1.13,2013-02-07 15:05:00,
2013-02-07 09:15:00,32.5,30.4,29.96,ESE,123,0.0,5.0,92,0.00,,,0.00,Wunderground v.1.13,2013-02-07 15:15:00,
2013-02-07 09:20:00,32.7,30.6,29.95,ESE,123,0.0,5.0,92,0.00,,,0.00,Wunderground v.1.13,2013-02-07 15:20:00,
2013-02-07 09:25:00,32.7,30.6,29.95,ESE,123,0.0,5.0,92,0.00,,,0.00,Wunderground v.1.13,2013-02-07 15:25:00,
2013-02-07 09:35:00,32.8,30.7,29.95,ESE,123,0.0,5.0,92,0.00,,,0.00,Wunderground v.1.13,2013-02-07 15:35:00,
2013-02-07 09:40:00,32.8,30.7,29.95,ESE,123,0.0,5.0,92,0.00,,,0.00,Wunderground v.1.13,2013-02-07 15:40:00,
2013-02-07 09:50:00,32.9,30.8,29.95,ESE,123,0.0,5.0,92,0.00,,,0.00,Wunderground v.1.13,2013-02-07 15:50:00,
2013-02-07 10:00:00,33.1,31.0,29.95,SE,125,0.0,5.0,92,0.00,,,0.00,Wunderground v.1.13,2013-02-07 16:00:00,
2013-02-07 10:05:00,33.1,31.0,29.95,SE,125,0.0,7.0,92,0.00,,,0.00,Wunderground v.1.13,2013-02-07 16:05:00,
2013-02-07 10:15:00,33.2,31.1,29.95,SE,125,0.0,7.0,92,0.00,,,0.00,Wunderground v.1.13,2013-02-07 16:15:00,
2013-02-07 10:20:00,33.2,31.1,29.95,SE,125,0.0,7.0,92,0.00,,,0.00,Wunderground v.1.13,2013-02-07 16:20:00,
2013-02-07 10:30:00,33.1,31.0,29.95,SE,125,0.0,7.0,92,0.00,,,0.00,Wunderground v.1.13,2013-02-07 16:30:00,
2013-02-07 10:35:00,33.1,31.0,29.95,SE,125,0.0,7.0,92,0.00,,,0.00,Wunderground v.1.13,2013-02-07 16:35:00,
2013-02-07 10:45:00,33.1,31.0,29.95,SE,125,0.0,7.0,92,0.00,,,0.00,Wunderground v.1.13,2013-02-07 16:45:00,
2013-02-07 10:55:00,33.1,31.0,29.95,SE,125,0.0,7.0,92,0.00,,,0.00,Wunderground v.1.13,2013-02-07 16:55:00,
2013-02-07 11:05:00,33.4,31.3,29.95,SE,125,0.0,0.0,92,0.00,,,0.00,Wunderground v.1.13,2013-02-07 17:05:00,
2013-02-07 11:15:00,33.1,31.0,29.95,SE,125,0.0,0.0,92,0.00,,,0.00,Wunderground v.1.13,2013-02-07 17:15:00,
2013-02-07 11:25:00,33.1,31.3,29.94,SE,125,0.0,0.0,93,0.00,,,0.00,Wunderground v.1.13,2013-02-07 17:25:00,
2013-02-07 11:30:00,33.1,31.3,29.94,SE,125,0.0,0.0,93,0.00,,,0.00,Wunderground v.1.13,2013-02-07 17:30:00,
2013-02-07 11:40:00,33.1,31.3,29.94,SE,125,0.0,0.0,93,0.00,,,0.00,Wunderground v.1.13,2013-02-07 17:40:00,
2013-02-07 11:50:00,33.1,31.3,29.93,SE,125,0.0,0.0,93,0.00,,,0.00,Wunderground v.1.13,2013-02-07 17:50:00,
2013-02-07 11:55:00,33.1,31.3,29.93,SE,125,0.0,0.0,93,0.00,,,0.00,Wunderground v.1.13,2013-02-07 17:55:00,
2013-02-07 12:00:00,33.1,31.3,29.93,SE,125,0.0,0.0,93,0.00,,,0.00,Wunderground v.1.13,2013-02-07 18:00:00,
2013-02-07 12:05:00,33.1,31.3,29.92,SE,125,0.0,2.0,93,0.00,,,0.00,Wunderground v.1.13,2013-02-07 18:05:00,
2013-02-07 12:15:00,33.1,31.3,29.92,SE,125,0.0,2.0,93,0.00,,,0.00,Wunderground v.1.13,2013-02-07 18:15:00,
2013-02-07 12:20:00,33.1,31.3,29.92,SE,125,0.0,2.0,93,0.00,,,0.00,Wunderground v.1.13,2013-02-07 18:20:00,
2013-02-07 12:25:00,33.2,31.4,29.92,SE,125,0.0,2.0,93,0.00,,,0.00,Wunderground v.1.13,2013-02-07 18:25:00,
2013-02-07 12:30:00,33.2,31.4,29.92,SE,125,0.0,2.0,93,0.00,,,0.00,Wunderground v.1.13,2013-02-07 18:30:00,
2013-02-07 12:40:00,33.2,31.4,29.91,ESE,121,0.0,2.0,93,0.00,,,0.00,Wunderground v.1.13,2013-02-07 18:40:00,
2013-02-07 12:45:00,33.1,31.3,29.91,ESE,119,0.0,2.0,93,0.00,,,0.00,Wunderground v.1.13,2013-02-07 18:45:00,
2013-02-07 12:55:00,33.1,31.3,29.90,ESE,118,0.0,2.0,93,0.00,,,0.00,Wunderground v.1.13,2013-02-07 18:55:00,
2013-02-07 13:00:00,33.1,31.3,29.90,ESE,118,0.0,2.0,93,0.00,,,0.00,Wunderground v.1.13,2013-02-07 19:00:00,
2013-02-07 13:05:00,33.1,31.6,29.90,ESE,118,0.0,4.0,94,0.00,,,0.00,Wunderground v.1.13,2013-02-07 19:05:00,
2013-02-07 13:15:00,33.1,31.6,29.90,ESE,117,0.0,4.0,94,0.00,,,0.00,Wunderground v.1.13,2013-02-07 19:15:00,
2013-02-07 13:20:00,33.1,31.6,29.89,ESE,117,0.0,4.0,94,0.00,,,0.00,Wunderground v.1.13,2013-02-07 19:20:00,
2013-02-07 13:30:00,33.1,31.6,29.89,ESE,117,0.0,4.0,94,0.00,,,0.00,Wunderground v.1.13,2013-02-07 19:30:00,
2013-02-07 13:35:00,33.1,31.6,29.89,ESE,117,0.0,4.0,94,0.00,,,0.00,Wunderground v.1.13,2013-02-07 19:35:00,
2013-02-07 13:45:00,33.1,31.6,29.89,ESE,115,0.0,4.0,94,0.00,,,0.00,Wunderground v.1.13,2013-02-07 19:45:00,
2013-02-07 13:50:00,33.1,31.6,29.88,ESE,105,0.0,4.0,94,0.00,,,0.01,Wunderground v.1.13,2013-02-07 19:50:00,
2013-02-07 13:55:00,33.1,31.6,29.88,ESE,105,0.0,4.0,94,0.00,,,0.01,Wunderground v.1.13,2013-02-07 19:55:00,
2013-02-07 14:05:00,33.1,31.6,29.87,ENE,75,0.0,5.0,94,0.00,,,0.01,Wunderground v.1.13,2013-02-07 20:05:00,
2013-02-07 14:15:00,32.9,31.4,29.87,ENE,72,0.0,5.0,94,0.00,,,0.02,Wunderground v.1.13,2013-02-07 20:15:00,
2013-02-07 14:25:00,32.8,31.3,29.87,NNE,33,1.0,1.0,94,0.00,,,0.02,Wunderground v.1.13,2013-02-07 20:25:00,
2013-02-07 14:30:00,32.8,31.3,29.87,NE,37,1.0,1.0,94,0.00,,,0.02,Wunderground v.1.13,2013-02-07 20:30:00,
2013-02-07 14:40:00,32.8,31.3,29.86,NNE,32,1.0,5.0,94,0.00,,,0.02,Wunderground v.1.13,2013-02-07 20:40:00,
2013-02-07 14:45:00,32.8,31.3,29.86,NNE,32,0.0,5.0,94,0.00,,,0.02,Wunderground v.1.13,2013-02-07 20:45:00,
2013-02-07 14:55:00,32.8,31.3,29.86,NNE,27,1.0,5.0,94,0.00,,,0.02,Wunderground v.1.13,2013-02-07 20:55:00,
2013-02-07 15:00:00,32.7,31.2,29.86,NNE,32,1.0,5.0,94,0.00,,,0.03,Wunderground v.1.13,2013-02-07 21:00:00,
2013-02-07 15:05:00,32.7,31.4,29.86,NNE,22,2.0,6.0,95,0.00,,,0.03,Wunderground v.1.13,2013-02-07 21:05:00,
2013-02-07 15:15:00,32.7,31.4,29.86,NNE,23,1.0,1.0,95,0.00,,,0.03,Wunderground v.1.13,2013-02-07 21:15:00,
2013-02-07 15:20:00,32.7,31.4,29.86,NNE,23,0.0,6.0,95,0.00,,,0.04,Wunderground v.1.13,2013-02-07 21:20:00,
2013-02-07 15:30:00,32.7,31.4,29.86,NNE,22,1.0,6.0,95,0.00,,,0.04,Wunderground v.1.13,2013-02-07 21:30:00,
2013-02-07 15:40:00,32.7,31.4,29.86,NNE,21,1.0,1.0,95,0.00,,,0.05,Wunderground v.1.13,2013-02-07 21:40:00,
2013-02-07 15:50:00,32.7,31.4,29.86,NNE,20,0.0,6.0,95,0.00,,,0.05,Wunderground v.1.13,2013-02-07 21:50:00,
2013-02-07 15:55:00,32.5,31.2,29.86,NNE,20,0.0,6.0,95,0.00,,,0.05,Wunderground v.1.13,2013-02-07 21:55:00,
2013-02-07 16:00:00,32.5,31.2,29.86,NNE,19,0.0,6.0,95,0.00,,,0.06,Wunderground v.1.13,2013-02-07 22:00:00,
2013-02-07 16:05:00,32.5,31.2,29.86,NNE,19,1.0,6.0,95,0.00,,,0.06,Wunderground v.1.13,2013-02-07 22:05:00,
2013-02-07 16:15:00,31.9,30.4,29.86,NW,321,2.0,6.0,94,0.00,,,0.06,Wunderground v.1.13,2013-02-07 22:15:00,
2013-02-07 16:20:00,31.5,30.0,29.85,NNW,336,3.0,3.0,94,0.00,,,0.06,Wunderground v.1.13,2013-02-07 22:20:00,
2013-02-07 16:25:00,31.3,29.8,29.85,NNW,336,2.0,2.0,94,0.00,,,0.06,Wunderground v.1.13,2013-02-07 22:25:00,
2013-02-07 16:35:00,30.7,29.2,29.85,North,5,2.0,6.0,94,0.00,,,0.07,Wunderground v.1.13,2013-02-07 22:35:00,
2013-02-07 16:40:00,30.6,29.1,29.85,NNW,343,2.0,6.0,94,0.00,,,0.07,Wunderground v.1.13,2013-02-07 22:40:00,
2013-02-07 16:45:00,30.3,28.8,29.85,NNW,344,1.0,1.0,94,0.00,,,0.07,Wunderground v.1.13,2013-02-07 22:45:00,
2013-02-07 16:55:00,30.0,28.5,29.86,NNW,342,2.0,2.0,94,0.00,,,0.07,Wunderground v.1.13,2013-02-07 22:55:00,
2013-02-07 17:00:00,29.8,28.3,29.86,NNW,342,2.0,2.0,94,0.00,,,0.07,Wunderground v.1.13,2013-02-07 23:00:00,
2013-02-07 17:05:00,29.7,28.2,29.86,NNW,342,2.0,11.0,94,0.00,,,0.07,Wunderground v.1.13,2013-02-07 23:05:00,
2013-02-07 17:15:00,29.4,28.1,29.86,North,360,3.0,11.0,95,0.00,,,0.07,Wunderground v.1.13,2013-02-07 23:15:00,
2013-02-07 17:25:00,29.3,28.0,29.86,NNW,345,3.0,11.0,95,0.00,,,0.07,Wunderground v.1.13,2013-02-07 23:25:00,
2013-02-07 17:35:00,29.3,28.0,29.88,North,5,3.0,11.0,95,0.00,,,0.07,Wunderground v.1.13,2013-02-07 23:35:00,
2013-02-07 17:40:00,29.1,27.8,29.88,NNW,346,4.0,11.0,95,0.00,,,0.07,Wunderground v.1.13,2013-02-07 23:40:00,
2013-02-07 17:50:00,29.0,27.7,29.88,North,5,4.0,11.0,95,0.00,,,0.07,Wunderground v.1.13,2013-02-07 23:50:00,
2013-02-07 17:55:00,29.0,27.7,29.88,North,355,4.0,11.0,95,0.00,,,0.07,Wunderground v.1.13,2013-02-07 23:55:00,
2013-02-07 18:05:00,28.8,27.5,29.89,NNE,24,2.0,2.0,95,0.00,,,0.07,Wunderground v.1.13,2013-02-08 00:05:00,
2013-02-07 18:15:00,28.8,27.5,29.89,NNW,346,2.0,11.0,95,0.00,,,0.07,Wunderground v.1.13,2013-02-08 00:15:00,
2013-02-07 18:25:00,29.0,27.7,29.89,NNW,344,2.0,2.0,95,0.00,,,0.07,Wunderground v.1.13,2013-02-08 00:25:00,
2013-02-07 18:35:00,29.1,27.8,29.89,North,360,1.0,1.0,95,0.00,,,0.07,Wunderground v.1.13,2013-02-08 00:35:00,
2013-02-07 18:45:00,29.3,28.0,29.89,North,351,1.0,1.0,95,0.00,,,0.07,Wunderground v.1.13,2013-02-08 00:45:00,
2013-02-07 18:55:00,29.4,28.1,29.90,NNW,346,1.0,1.0,95,0.00,,,0.07,Wunderground v.1.13,2013-02-08 00:55:00,
2013-02-07 19:05:00,29.4,28.1,29.90,North,360,2.0,2.0,95,0.00,,,0.07,Wunderground v.1.13,2013-02-08 01:05:00,
2013-02-07 19:15:00,29.5,28.2,29.90,NNW,342,1.0,1.0,95,0.00,,,0.07,Wunderground v.1.13,2013-02-08 01:15:00,
2013-02-07 19:20:00,29.5,28.2,29.91,NNW,343,2.0,8.0,95,0.00,,,0.07,Wunderground v.1.13,2013-02-08 01:20:00,
2013-02-07 19:30:00,29.5,28.2,29.91,NNW,340,2.0,8.0,95,0.00,,,0.07,Wunderground v.1.13,2013-02-08 01:30:00,
2013-02-07 19:35:00,29.4,28.1,29.91,NNW,336,2.0,8.0,95,0.00,,,0.07,Wunderground v.1.13,2013-02-08 01:35:00,
2013-02-07 19:45:00,28.8,27.5,29.91,NNE,17,4.0,8.0,95,0.00,,,0.07,Wunderground v.1.13,2013-02-08 01:45:00,
2013-02-07 19:50:00,28.2,26.7,29.92,NNW,336,4.0,8.0,94,0.00,,,0.07,Wunderground v.1.13,2013-02-08 01:50:00,
2013-02-07 20:00:00,26.3,24.6,29.92,NNW,348,5.0,8.0,93,0.00,,,0.07,Wunderground v.1.13,2013-02-08 02:00:00,
2013-02-07 20:05:00,25.6,24.1,29.93,NW,325,6.0,15.0,94,0.00,,,0.07,Wunderground v.1.13,2013-02-08 02:05:00,
2013-02-07 20:15:00,24.5,22.8,29.93,NW,310,6.0,15.0,93,0.00,,,0.07,Wunderground v.1.13,2013-02-08 02:15:00,
2013-02-07 20:25:00,23.9,22.2,29.95,NE,38,7.0,7.0,93,0.00,,,0.07,Wunderground v.1.13,2013-02-08 02:25:00,
2013-02-07 20:30:00,23.9,22.2,29.95,North,350,6.0,15.0,93,0.00,,,0.07,Wunderground v.1.13,2013-02-08 02:30:00,
2013-02-07 20:40:00,23.6,21.9,29.96,NNW,344,5.0,5.0,93,0.00,,,0.07,Wunderground v.1.13,2013-02-08 02:40:00,
2013-02-07 20:45:00,23.3,21.6,29.96,NNW,335,6.0,15.0,93,0.00,,,0.07,Wunderground v.1.13,2013-02-08 02:45:00,
2013-02-07 20:50:00,23.0,21.3,29.96,NNE,20,6.0,6.0,93,0.00,,,0.07,Wunderground v.1.13,2013-02-08 02:50:00,
2013-02-07 21:00:00,22.7,20.7,29.96,North,355,6.0,15.0,92,0.00,,,0.07,Wunderground v.1.13,2013-02-08 03:00:00,
2013-02-07 21:05:00,22.4,20.4,29.96,North,5,6.0,16.0,92,0.00,,,0.07,Wunderground v.1.13,2013-02-08 03:05:00,
2013-02-07 21:15:00,21.9,19.9,29.96,NNW,338,6.0,16.0,92,0.00,,,0.07,Wunderground v.1.13,2013-02-08 03:15:00,
2013-02-07 21:20:00,21.6,19.6,29.98,North,355,8.0,8.0,92,0.00,,,0.07,Wunderground v.1.13,2013-02-08 03:20:00,
2013-02-07 21:30:00,21.3,19.3,29.98,NNW,340,6.0,6.0,92,0.00,,,0.07,Wunderground v.1.13,2013-02-08 03:30:00,
2013-02-07 21:35:00,21.3,19.3,29.99,North,5,5.0,16.0,92,0.00,,,0.07,Wunderground v.1.13,2013-02-08 03:35:00,
2013-02-07 21:45:00,21.1,19.1,29.99,North,360,5.0,5.0,92,0.00,,,0.07,Wunderground v.1.13,2013-02-08 03:45:00,
2013-02-07 21:55:00,21.1,19.1,29.99,North,5,4.0,16.0,92,0.00,,,0.07,Wunderground v.1.13,2013-02-08 03:55:00,
2013-02-07 22:00:00,21.1,18.9,29.99,North,355,6.0,6.0,91,0.00,,,0.07,Wunderground v.1.13,2013-02-08 04:00:00,
2013-02-07 22:05:00,21.1,18.9,29.99,North,5,7.0,7.0,91,0.00,,,0.07,Wunderground v.1.13,2013-02-08 04:05:00,
2013-02-07 22:15:00,21.1,18.9,29.99,North,355,5.0,5.0,91,0.00,,,0.07,Wunderground v.1.13,2013-02-08 04:15:00,
2013-02-07 22:25:00,21.3,19.1,30.00,North,360,6.0,6.0,91,0.00,,,0.07,Wunderground v.1.13,2013-02-08 04:25:00,
2013-02-07 22:35:00,21.4,19.2,30.00,NNE,22,4.0,20.0,91,0.00,,,0.07,Wunderground v.1.13,2013-02-08 04:35:00,
2013-02-07 22:45:00,20.8,18.6,30.00,NNW,339,6.0,20.0,91,0.00,,,0.07,Wunderground v.1.13,2013-02-08 04:45:00,
2013-02-07 22:55:00,20.6,18.4,30.00,North,360,6.0,20.0,91,0.00,,,0.07,Wunderground v.1.13,2013-02-08 04:55:00,
2013-02-07 23:00:00,20.6,18.4,30.00,NNE,22,6.0,20.0,91,0.00,,,0.07,Wunderground v.1.13,2013-02-08 05:00:00,
2013-02-07 23:05:00,20.5,18.3,30.01,NNE,26,5.0,19.0,91,0.00,,,0.07,Wunderground v.1.13,2013-02-08 05:05:00,
2013-02-07 23:15:00,20.5,18.3,30.01,NNE,13,5.0,19.0,91,0.00,,,0.07,Wunderground v.1.13,2013-02-08 05:15:00,
2013-02-07 23:20:00,20.5,18.0,30.01,NNW,343,6.0,6.0,90,0.00,,,0.07,Wunderground v.1.13,2013-02-08 05:20:00,
2013-02-07 23:30:00,20.5,18.0,30.01,NW,323,6.0,6.0,90,0.00,,,0.07,Wunderground v.1.13,2013-02-08 05:30:00,
2013-02-07 23:35:00,20.5,18.0,30.01,NNW,342,6.0,19.0,90,0.00,,,0.07,Wunderground v.1.13,2013-02-08 05:35:00,
2013-02-07 23:45:00,20.5,18.0,30.01,NNW,332,7.0,19.0,90,0.00,,,0.07,Wunderground v.1.13,2013-02-08 05:45:00,
2013-02-07 23:55:00,20.5,18.0,30.02,North,360,6.0,6.0,90,0.00,,,0.07,Wunderground v.1.13,2013-02-08 05:55:00,